This demonstration page uses our WeatherBlox Daily Observations layout. Learn more.

41.86663, -103.66717

Hourly Observations for June 20, 2019

Temp ( °F °C ) Dew Point ( °F °C ) Humidity (%) Winds ( mph kmh ) Pressure ( in mb ) Visibility ( mi km ) Precip ( " mm )
12:53 am 00:53 Clear 74 23.3 57 13.9 56 56 W 17 28 29.52 1000 10 16.0934 0 0
1:53 am 01:53 Clear 60 15.6 52 11.1 75 75 NNW 20 31 29.63 1003 10 16.0934 0 0
2:53 am 02:53 Clear 58 14.4 49 9.4 72 72 NNW 17 28 29.65 1004 10 16.0934 0 0
3:53 am 03:53 Clear 57 13.9 49 9.4 74 74 WSW 12 19 29.71 1006 10 16.0934 0 0
4:53 am 04:53 Mostly Clear 53 11.7 50 10 89 89 WNW 8 13 29.73 1007 10 16.0934 0 0
5:53 am 05:53 Sunny 53 11.7 51 10.6 93 93 WNW 6 9 29.73 1007 10 16.0934 0 0
6:53 am 06:53 Sunny 56 13.3 51 10.6 84 84 WNW 6 9 29.75 1008 10 16.0934 0 0
7:53 am 07:53 Sunny 60 15.6 52 11.1 75 75 WNW 6 9 29.74 1007 10 16.0934 0 0
8:53 am 08:53 Sunny 64 17.8 52 11.1 65 65 NW 8 13 29.74 1007 10 16.0934 0 0
9:53 am 09:53 Sunny 67 19.4 52 11.1 59 59 VRB 3 6 29.72 1007 10 16.0934 0 0
10:53 am 10:53 Sunny 69 20.6 53 11.7 57 57 SSE 8 13 29.7 1006 10 16.0934 0 0
11:53 am 11:53 Sunny 72 22.2 57 13.9 59 59 Calm 29.68 1005 10 16.0934 0 0
12:53 pm 12:53 Sunny 74 23.3 60 15.6 62 62 S 6 9 29.65 1004 10 16.0934 0 0
1:53 pm 13:53 Sunny 77 25 62 16.7 60 60 ESE 13 20 29.64 1004 10 16.0934 0 0
2:53 pm 14:53 Sunny 79 26.1 64 17.8 60 60 ESE 15 24 29.62 1003 10 16.0934 0 0
3:53 pm 15:53 Sunny 81 27.2 68 20 65 65 ESE 16 26 29.57 1002 10 16.0934 0 0
4:42 pm 16:42 Mostly Cloudy with Thunderstorms 77 25 63 17 61 61 SE 14 22 29.43 996 10 16.0934 0 0
4:53 pm 16:53 Mostly Cloudy with Thunderstorms 78 25.6 63 17.2 60 60 SSE 16 26 29.55 1001 10 16.0934 0 0
5:05 pm 17:05 Mostly Cloudy with Nearby Thunderstorms 80 26.7 66 18.9 62 62 SSE 21 33 29.39 995 10 16.0934 0 0
5:27 pm 17:27 Partly Cloudy 81 27 68 20 66 66 SE 17 28 29.37 995 10 16.0934 0 0
5:53 pm 17:53 Sunny 79 26.1 67 19.4 67 67 SSE 18 30 29.52 1000 10 16.0934 0 0
6:53 pm 18:53 Mostly Sunny 77 25 63 17.2 62 62 SE 17 28 29.5 999 10 16.0934 0 0
7:53 pm 19:53 Cloudy 75 23.9 60 15.6 60 60 S 12 19 29.52 1000 10 16.0934 0 0.0254
8:53 pm 20:53 Clear 73 22.8 57 13.9 57 57 S 20 31 29.53 1000 10 16.0934 0 0
9:53 pm 21:53 Mostly Cloudy 71 21.7 56 13.3 59 59 S 14 22 29.58 1002 10 16.0934 0 0
10:53 pm 22:53 Cloudy with Light Rain 65 18.3 57 13.9 76 76 SW 8 13 29.63 1004 10 16.0934 0 0.0254
11:53 pm 23:53 Mostly Cloudy 60 15.6 60 15.6 100 100 NW 16 26 29.66 1004 10 16.0934 0.06 1.524

Powered by AerisWeather